User: anonymous   Login
Location: Caltech
(34.1382°N, 118.1253°W)
Time: 19:17:18
(UTC-07:00)
Language:

FENGYUN 3A - Orbit

View from above orbital plane
View from above orbital plane
View from above satellite
View from above satellite

Ground track
Ground track

The orbit data is extracted from the following two-line orbital elements,

1 32958U 08026A   15213.14910111  .00000016  00000-0  27334-4 0  9993
2 32958 098.4986 261.8771 0010568 107.4966 252.7372 14.19569101372005
Epoch (UTC): 01 August 2015 03:34:42
Eccentricity: 0.0010568
inclination: 98.4986°
perigee height: 819 km
apogee height: 834 km
right ascension of ascending node: 261.8771°
argument of perigee: 107.4966°
revolutions per day: 14.19569101
mean anomaly at epoch: 252.7372°
orbit number at epoch: 37200

The dashed part of the orbit path shows where the satellite is in the earth's shadow,  

DLR